Weather History for Sturgis, MI

Change the Weather History Date:

Sunday, December 1, 2013

  Actual Average (KHAI) Record (KHAI)
Temperature  
Mean Temperature 34 °F -  
Max Temperature 42 °F 41 °F 60 °F (1962)
Min Temperature 26 °F 26 °F 5 °F (1955)
Degree Days  
Heating Degree Days 31    
Moisture  
Dew Point 28 °F    
Average Humidity 77    
Maximum Humidity 100    
Minimum Humidity 61    
Precipitation  
Precipitation 0.00 in - - ()
Sea Level Pressure  
Sea Level Pressure 30.02 in    
Wind  
Wind Speed 3 mph (West)    
Max Wind Speed 9 mph    
Max Gust Speed -    
Visibility 9 miles    
Events      
Averages and records for this station are not official NWS values.
T = Trace of Precipitation, MM = Missing Value Source: NWS Daily Summary

Daily Weather History Graph

Daily Weather History Graph

Search for Another Location

Airport:

Trip Planner

Search our weather history database for the weather conditions in past years. The results will help you decide how hot, cold, wet, or windy it might be!

Date:

Astronomy

Dec. 01, 2013 Rise Set
Actual Time 7:49 AM EST 5:11 PM EST
Civil Twilight 7:18 AM EST 5:42 PM EST
Nautical Twilight 6:44 AM EST 6:17 PM EST
Astronomical Twilight 6:10 AM EST 6:50 PM EST
Moon 6:06 AM EST (12/1) 4:22 PM EST (12/1)
Length of Visible Light 10h 23m
Length of Day
9h 21m
Waning Crescent, 2% of the Moon is Illuminated
Dec 1
Waning Crescent
Dec 2
New
Dec 9
First Quarter
Dec 17
Full
Dec 25
Last Quarter

Hourly Weather History & Observations

Time (EST) Temp. Windchill Dew Point Humidity Pressure Visibility Wind Dir Wind Speed Gust Speed Precip Events Conditions
12:15 AM 35.6 °F 32.8 °F 26.6 °F 70% 30.07 in 10.0 mi SW 3.5 mph - N/A   Overcast
12:34 AM 35.6 °F 32.8 °F 26.6 °F 70% 30.06 in 10.0 mi SW 3.5 mph - N/A   Overcast
12:55 AM 35.6 °F 30.7 °F 28.4 °F 75% 30.06 in 10.0 mi SW 5.8 mph - N/A   Overcast
1:15 AM 37.4 °F 32.8 °F 28.4 °F 70% 30.05 in 10.0 mi SW 5.8 mph - N/A   Overcast
1:34 AM 37.4 °F 33.8 °F 28.4 °F 70% 30.04 in 10.0 mi SW 4.6 mph - N/A   Overcast
1:55 AM 37.4 °F 32.8 °F 28.4 °F 70% 30.04 in 10.0 mi SW 5.8 mph - N/A   Overcast
2:15 AM 37.4 °F 32.8 °F 28.4 °F 70% 30.04 in 10.0 mi SW 5.8 mph - N/A   Overcast
2:34 AM 37.4 °F 32.8 °F 28.4 °F 70% 30.04 in 10.0 mi SW 5.8 mph - N/A   Overcast
2:55 AM 37.4 °F 32.8 °F 26.6 °F 65% 30.04 in 10.0 mi SW 5.8 mph - N/A   Mostly Cloudy
3:15 AM 35.6 °F 31.7 °F 26.6 °F 70% 30.03 in 10.0 mi SW 4.6 mph - N/A   Scattered Clouds
3:34 AM 33.8 °F 29.6 °F 26.6 °F 75% 30.03 in 10.0 mi SSW 4.6 mph - N/A   Clear
3:55 AM 35.6 °F 32.8 °F 26.6 °F 70% 30.03 in 10.0 mi SW 3.5 mph - N/A   Clear
4:15 AM 33.8 °F 30.8 °F 26.6 °F 75% 30.03 in 10.0 mi SW 3.5 mph - N/A   Clear
4:34 AM 33.8 °F 30.8 °F 26.6 °F 75% 30.02 in 10.0 mi SW 3.5 mph - N/A   Clear
4:55 AM 33.8 °F 30.8 °F 26.6 °F 75% 30.03 in 10.0 mi SW 3.5 mph - N/A   Clear
5:15 AM 32.0 °F - 26.6 °F 80% 30.03 in 10.0 mi Calm Calm - N/A   Clear
5:34 AM 32.0 °F - 24.8 °F 75% 30.03 in 10.0 mi Calm Calm - N/A   Clear
5:55 AM 32.0 °F - 24.8 °F 75% 30.03 in 10.0 mi Calm Calm - N/A   Scattered Clouds
6:15 AM 33.8 °F - 26.6 °F 75% 30.03 in 10.0 mi Calm Calm - N/A   Clear
6:34 AM 30.2 °F - 24.8 °F 80% 30.03 in 10.0 mi Calm Calm - N/A   Scattered Clouds
6:55 AM 30.2 °F - 26.6 °F 86% 30.03 in 10.0 mi Calm Calm - N/A   Overcast
7:15 AM 32.0 °F - 26.6 °F 80% 30.03 in 10.0 mi Calm Calm - N/A   Mostly Cloudy
7:34 AM 30.2 °F - 26.6 °F 86% 30.03 in 10.0 mi Calm Calm - N/A   Scattered Clouds
7:55 AM 30.2 °F - 26.6 °F 86% 30.03 in 10.0 mi Calm Calm - N/A   Mostly Cloudy
8:15 AM 30.2 °F - 26.6 °F 86% 30.03 in 10.0 mi Calm Calm - N/A   Overcast
8:34 AM 30.2 °F - 28.4 °F 93% 30.04 in 10.0 mi Calm Calm - N/A   Mostly Cloudy
8:55 AM 32.0 °F - 28.4 °F 87% 30.04 in 10.0 mi Calm Calm - N/A   Overcast
9:15 AM 33.8 °F 30.8 °F 28.4 °F 81% 30.04 in 10.0 mi West 3.5 mph - N/A   Scattered Clouds
9:34 AM 33.8 °F 29.6 °F 28.4 °F 81% 30.04 in 10.0 mi West 4.6 mph - N/A   Clear
9:55 AM 35.6 °F 32.8 °F 28.4 °F 75% 30.05 in 10.0 mi West 3.5 mph - N/A   Clear
10:15 AM 35.6 °F 31.7 °F 30.2 °F 81% 30.05 in 10.0 mi West 4.6 mph - N/A   Clear
10:34 AM 35.6 °F 31.7 °F 30.2 °F 81% 30.06 in 10.0 mi WNW 4.6 mph - N/A   Clear
10:55 AM 37.4 °F 34.9 °F 30.2 °F 75% 30.05 in 10.0 mi WNW 3.5 mph - N/A   Clear
11:15 AM 37.4 °F 34.9 °F 32.0 °F 81% 30.05 in 10.0 mi WNW 3.5 mph - N/A   Clear
11:34 AM 39.2 °F 37.0 °F 33.8 °F 81% 30.05 in 10.0 mi West 3.5 mph - N/A   Clear
11:55 AM 39.2 °F - 33.8 °F 81% 30.03 in 7.0 mi Calm Calm - N/A   Clear
12:15 PM 41.0 °F - 33.8 °F 76% 30.03 in 7.0 mi Calm Calm - N/A   Mostly Cloudy
12:34 PM 42.8 °F - 33.8 °F 70% 30.01 in 7.0 mi Calm Calm - N/A   Mostly Cloudy
12:55 PM 42.8 °F - 33.8 °F 70% 30.01 in 7.0 mi Calm Calm - N/A   Clear
1:15 PM 42.8 °F 38.0 °F 33.8 °F 70% 30.00 in 7.0 mi North 8.1 mph - N/A   Scattered Clouds
1:34 PM 42.8 °F 38.0 °F 33.8 °F 70% 30.00 in 7.0 mi NNW 8.1 mph - N/A   Scattered Clouds
1:55 PM 42.8 °F 38.0 °F 32.0 °F 66% 30.00 in 7.0 mi NNW 8.1 mph - N/A   Scattered Clouds
2:14 PM 42.8 °F 39.3 °F 32.0 °F 66% 30.00 in 10.0 mi NW 5.8 mph - N/A   Scattered Clouds
2:34 PM 42.8 °F 41.1 °F 32.0 °F 66% 29.99 in 7.0 mi NW 3.5 mph - N/A   Scattered Clouds
2:55 PM 42.8 °F 39.3 °F 30.2 °F 61% 29.99 in 10.0 mi West 5.8 mph - N/A   Scattered Clouds
3:14 PM 42.8 °F 37.5 °F 30.2 °F 61% 29.99 in 10.0 mi North 9.2 mph - N/A   Clear
3:34 PM 42.8 °F 38.6 °F 30.2 °F 61% 29.99 in 10.0 mi North 6.9 mph - N/A   Scattered Clouds
3:55 PM 41.0 °F 37.1 °F 30.2 °F 65% 29.99 in 7.0 mi North 5.8 mph - N/A   Scattered Clouds
4:14 PM 41.0 °F 36.4 °F 28.4 °F 61% 29.98 in 7.0 mi NNW 6.9 mph - N/A   Clear
4:34 PM 39.2 °F 35.0 °F 28.4 °F 65% 29.99 in 10.0 mi NNW 5.8 mph - N/A   Clear
4:55 PM 37.4 °F 33.8 °F 28.4 °F 70% 30.00 in 10.0 mi NNW 4.6 mph - N/A   Clear
5:14 PM 37.4 °F - 28.4 °F 70% 30.00 in 10.0 mi Calm Calm - N/A   Clear
5:34 PM 37.4 °F - 28.4 °F 70% 30.00 in 10.0 mi Calm Calm - N/A   Scattered Clouds
5:55 PM 37.4 °F - 28.4 °F 70% 30.00 in 10.0 mi Calm Calm - N/A   Mostly Cloudy
6:15 PM 35.6 °F - 28.4 °F 75% 30.00 in 10.0 mi Calm Calm - N/A   Scattered Clouds
6:34 PM 33.8 °F - 28.4 °F 81% 30.00 in 7.0 mi Calm Calm - N/A   Clear
6:55 PM 33.8 °F 29.6 °F 26.6 °F 75% 29.99 in 10.0 mi North 4.6 mph - N/A   Clear
7:14 PM 33.8 °F 30.8 °F 26.6 °F 75% 30.00 in 10.0 mi NNE 3.5 mph - N/A   Clear
7:34 PM 33.8 °F - 26.6 °F 75% 30.01 in 7.0 mi Calm Calm - N/A   Clear
7:55 PM 33.8 °F 30.8 °F 26.6 °F 75% 30.01 in 7.0 mi NNE 3.5 mph - N/A   Clear
8:14 PM 32.0 °F - 28.4 °F 87% 30.01 in 7.0 mi Calm Calm - N/A   Clear
8:34 PM 32.0 °F - 28.4 °F 87% 30.00 in 7.0 mi Calm Calm - N/A   Scattered Clouds
8:55 PM 32.0 °F 27.5 °F 28.4 °F 87% 29.99 in 7.0 mi NE 4.6 mph - N/A   Scattered Clouds
9:15 PM 30.2 °F - 28.4 °F 93% 30.00 in 7.0 mi Calm Calm - N/A   Clear
9:34 PM 30.2 °F - 26.6 °F 86% 30.00 in 5.0 mi Calm Calm - N/A   Clear
9:55 PM 28.4 °F - 26.6 °F 93% 30.00 in 5.0 mi Calm Calm - N/A   Clear
10:15 PM 28.4 °F - 26.6 °F 93% 29.99 in 5.0 mi Calm Calm - N/A   Clear
10:35 PM 26.6 °F - 26.6 °F 100% 29.99 in 4.0 mi Calm Calm - N/A   Clear
10:54 PM 26.6 °F - 26.6 °F 100% 29.99 in 4.0 mi Calm Calm - N/A   Clear
11:15 PM 28.4 °F - 26.6 °F 93% 29.99 in 4.0 mi Calm Calm - N/A   Clear
11:34 PM 26.6 °F - 26.6 °F 100% 29.99 in 3.0 mi Calm Calm - N/A   Clear
11:54 PM 26.6 °F - 26.6 °F 100% 29.99 in 4.0 mi Calm Calm - N/A   Clear